When you browse on this site, cookies collect data to enhance your experience and personalize the content and advertising you see.
Visit our Privacy Policy to learn more. By continuing to use the site, you agree to this use of cookies and data.
  • In Hungary
  • List of Countries
  • For 7 days
  • Water Temperature
  • Satellite Maps
  • Weather Map
  • News
  • Weather Widgets
  • user-avatar
    Login

    Hourly Weather Rabka-Zdrój

    Today, 21 January, Monday

    Time Temperature Precipitation Wind Pressure Humidity
    00:00 -10°C° 0 mm 1 mps 706 mmHg 83%
    01:00 -12°C° 0 mm 2 mps 707 mmHg 79%
    02:00 -12°C° 0 mm 2 mps 707 mmHg 79%
    03:00 -10°C° 0 mm 1 mps 707 mmHg 79%
    04:00 -10°C° 0 mm 1 mps 707 mmHg 79%
    05:00 -10°C° 0 mm 1 mps 707 mmHg 78%
    06:00 -11°C° 0 mm 1 mps 707 mmHg 78%
    07:00 -11°C° 0 mm 1 mps 707 mmHg 78%
    08:00 -9°C° 0 mm 1 mps 708 mmHg 74%
    09:00 -7°C° 0 mm 1 mps 708 mmHg 70%
    10:00 -4°C° 0 mm 1 mps 709 mmHg 67%
    11:00 -4°C° 0 mm 0 mps 709 mmHg 64%
    12:00 -3°C° 0 mm 0 mps 709 mmHg 62%
    13:00 -1°C° 0 mm 0 mps 709 mmHg 60%
    14:00 -2°C° 0 mm 0 mps 708 mmHg 65%
    15:00 -4°C° 0 mm 0 mps 708 mmHg 70%
    16:00 -5°C° 0 mm 0 mps 708 mmHg 76%
    17:00 -6°C° 0 mm 0 mps 707 mmHg 78%
    18:00 -7°C° 0 mm 0 mps 707 mmHg 81%
    19:00 -8°C° 0 mm 0 mps 707 mmHg 83%
    20:00 -8°C° 0 mm 0 mps 707 mmHg 84%
    21:00 -8°C° 0 mm 0 mps 707 mmHg 85%
    22:00 -9°C° 0 mm 1 mps 707 mmHg 86%
    23:00 -9°C° 0 mm 1 mps 706 mmHg 86%

    Tomorrow, 22 January, Tuesday

    Time Temperature Precipitation Wind Pressure Humidity
    00:00 -9°C° 0 mm 1 mps 706 mmHg 86%
    01:00 -9°C° 0 mm 1 mps 706 mmHg 86%
    02:00 -9°C° 0 mm 1 mps 706 mmHg 86%
    03:00 -9°C° 0 mm 1 mps 705 mmHg 85%
    04:00 -10°C° 0 mm 1 mps 705 mmHg 85%
    05:00 -10°C° 0 mm 1 mps 705 mmHg 85%
    06:00 -10°C° 0 mm 1 mps 704 mmHg 84%
    07:00 -10°C° 0 mm 1 mps 704 mmHg 84%
    08:00 -8°C° 0 mm 0 mps 704 mmHg 80%
    09:00 -7°C° 0 mm 0 mps 704 mmHg 76%
    10:00 -5°C° 0 mm 0 mps 704 mmHg 73%
    11:00 -4°C° 0 mm 0 mps 704 mmHg 70%
    12:00 -2°C° 0 mm 1 mps 703 mmHg 67%
    13:00 -1°C° 0 mm 1 mps 703 mmHg 65%
    14:00 -3°C° 0 mm 0 mps 702 mmHg 70%
    15:00 -5°C° 0 mm 0 mps 701 mmHg 74%
    16:00 -6°C° 0 mm 0 mps 701 mmHg 79%
    17:00 -7°C° 0 mm 0 mps 700 mmHg 81%
    18:00 -7°C° 0 mm 0 mps 700 mmHg 83%
    19:00 -8°C° 0 mm 1 mps 699 mmHg 85%
    20:00 -9°C° 0 mm 1 mps 699 mmHg 85%
    21:00 -9°C° 0 mm 1 mps 699 mmHg 85%
    22:00 -9°C° 0 mm 1 mps 698 mmHg 86%
    23:00 -9°C° 0 mm 1 mps 698 mmHg 85%

    Day after tomorrow, 23 January, Wednesday

    Time Temperature Precipitation Wind Pressure Humidity
    00:00 -9°C° 0 mm 1 mps 697 mmHg 85%
    01:00 -10°C° 0 mm 1 mps 697 mmHg 84%
    02:00 -10°C° 0 mm 1 mps 696 mmHg 83%
    03:00 -10°C° 0 mm 1 mps 696 mmHg 82%
    04:00 -10°C° 0 mm 1 mps 695 mmHg 81%
    05:00 -10°C° 0 mm 1 mps 695 mmHg 80%
    06:00 -10°C° 0 mm 1 mps 695 mmHg 79%
    07:00 -10°C° 0 mm 1 mps 695 mmHg 77%
    08:00 -8°C° 0 mm 1 mps 695 mmHg 74%
    09:00 -6°C° 0 mm 1 mps 696 mmHg 71%
    10:00 -3°C° 0 mm 1 mps 696 mmHg 68%
    11:00 -2°C° 0 mm 1 mps 696 mmHg 65%
    12:00 0°C° 0 mm 1 mps 696 mmHg 63%
    13:00 +1°C° 0 mm 1 mps 696 mmHg 61%
    14:00 0°C° 0 mm 1 mps 696 mmHg 68%
    15:00 -1°C° 0 mm 1 mps 696 mmHg 75%
    16:00 -2°C° 0 mm 1 mps 695 mmHg 82%
    17:00 -2°C° 0.1 mm 1 mps 696 mmHg 86%
    18:00 -3°C° 0.1 mm 1 mps 696 mmHg 89%
    19:00 -3°C° 0.1 mm 1 mps 696 mmHg 92%
    20:00 -3°C° 0.1 mm 1 mps 696 mmHg 92%
    21:00 -3°C° 0.1 mm 1 mps 697 mmHg 93%
    22:00 -4°C° 0.1 mm 1 mps 697 mmHg 93%
    23:00 -4°C° 0 mm 1 mps 697 mmHg 93%

    24 January, Thursday

    Time Temperature Precipitation Wind Pressure Humidity
    00:00 -4°C° 0 mm 1 mps 698 mmHg 92%
    01:00 -4°C° 0 mm 1 mps 698 mmHg 92%
    02:00 -4°C° 0 mm 1 mps 698 mmHg 92%
    03:00 -6°C° 0 mm 1 mps 698 mmHg 92%
    04:00 -6°C° 0 mm 1 mps 698 mmHg 92%
    05:00 -6°C° 0 mm 1 mps 698 mmHg 91%
    06:00 -6°C° 0 mm 1 mps 699 mmHg 91%
    07:00 -6°C° 0 mm 1 mps 699 mmHg 90%
    08:00 -4°C° 0 mm 1 mps 700 mmHg 88%
    09:00 -3°C° 0 mm 1 mps 700 mmHg 86%
    10:00 -2°C° 0 mm 1 mps 701 mmHg 84%
    11:00 0°C° 0 mm 1 mps 701 mmHg 83%
    12:00 +1°C° 0 mm 1 mps 701 mmHg 82%
    13:00 +2°C° 0 mm 1 mps 701 mmHg 80%
    14:00 +1°C° 0 mm 1 mps 701 mmHg 84%
    15:00 0°C° 0 mm 1 mps 701 mmHg 88%
    16:00 -3°C° 0 mm 2 mps 701 mmHg 91%
    17:00 -4°C° 0 mm 2 mps 701 mmHg 92%
    18:00 -5°C° 0 mm 2 mps 701 mmHg 93%
    19:00 -6°C° 0 mm 2 mps 702 mmHg 94%
    20:00 -6°C° 0 mm 2 mps 702 mmHg 93%
    21:00 -7°C° 0 mm 2 mps 702 mmHg 93%
    22:00 -7°C° 0 mm 2 mps 702 mmHg 92%
    23:00 -8°C° 0 mm 2 mps 702 mmHg 91%

    25 January, Friday

    Time Temperature Precipitation Wind Pressure Humidity
    00:00 -8°C° 0 mm 2 mps 702 mmHg 90%
    01:00 -7°C° 0 mm 1 mps 702 mmHg 89%
    02:00 -8°C° 0 mm 1 mps 702 mmHg 89%
    03:00 -8°C° 0 mm 1 mps 702 mmHg 88%
    04:00 -8°C° 0 mm 1 mps 702 mmHg 88%
    05:00 -10°C° 0 mm 2 mps 702 mmHg 88%
    06:00 -10°C° 0 mm 2 mps 702 mmHg 88%
    07:00 -10°C° 0 mm 2 mps 702 mmHg 88%
    08:00 -9°C° 0 mm 2 mps 702 mmHg 86%
    09:00 -8°C° 0 mm 2 mps 703 mmHg 83%
    10:00 -7°C° 0 mm 2 mps 703 mmHg 81%
    11:00 -6°C° 0 mm 2 mps 703 mmHg 81%
    12:00 -6°C° 0 mm 2 mps 703 mmHg 81%
    13:00 -5°C° 0 mm 2 mps 703 mmHg 80%
    14:00 -5°C° 0 mm 2 mps 703 mmHg 83%
    15:00 -6°C° 0 mm 2 mps 703 mmHg 86%
    16:00 -7°C° 0 mm 2 mps 703 mmHg 89%
    17:00 -8°C° 0 mm 2 mps 703 mmHg 90%
    18:00 -9°C° 0 mm 2 mps 703 mmHg 91%
    19:00 -10°C° 0 mm 2 mps 703 mmHg 92%
    20:00 -10°C° 0 mm 2 mps 703 mmHg 92%
    21:00 -12°C° 0 mm 2 mps 703 mmHg 92%
    22:00 -12°C° 0 mm 2 mps 702 mmHg 92%
    23:00 -12°C° 0 mm 2 mps 702 mmHg 92%

    26 January, Saturday

    Time Temperature Precipitation Wind Pressure Humidity
    00:00 -13°C° 0 mm 2 mps 702 mmHg 92%
    01:00 -11°C° 0 mm 1 mps 702 mmHg 92%
    02:00 -11°C° 0 mm 1 mps 701 mmHg 92%
    03:00 -11°C° 0 mm 1 mps 701 mmHg 91%
    04:00 -11°C° 0 mm 1 mps 700 mmHg 90%
    05:00 -11°C° 0 mm 1 mps 700 mmHg 89%
    06:00 -10°C° 0 mm 1 mps 700 mmHg 87%
    07:00 -10°C° 0 mm 0 mps 700 mmHg 85%
    08:00 -8°C° 0 mm 0 mps 700 mmHg 81%
    09:00 -6°C° 0 mm 1 mps 700 mmHg 77%
    10:00 -3°C° 0 mm 1 mps 701 mmHg 72%
    11:00 -3°C° 0.1 mm 1 mps 700 mmHg 76%
    12:00 -2°C° 0.1 mm 1 mps 700 mmHg 79%
    13:00 -1°C° 0.1 mm 1 mps 700 mmHg 83%
    14:00 -1°C° 0 mm 1 mps 700 mmHg 86%
    15:00 -2°C° 0 mm 1 mps 699 mmHg 89%
    16:00 -2°C° 0 mm 1 mps 699 mmHg 93%
    17:00 -3°C° 0 mm 1 mps 699 mmHg 94%
    18:00 -3°C° 0 mm 1 mps 699 mmHg 95%
    19:00 -4°C° 0 mm 1 mps 699 mmHg 97%
    20:00 -3°C° 0.1 mm 1 mps 699 mmHg 97%
    21:00 -3°C° 0.1 mm 1 mps 699 mmHg 97%
    22:00 -3°C° 0.1 mm 1 mps 699 mmHg 97%
    23:00 -2°C° 0.1 mm 1 mps 698 mmHg 97%
    Show more